Time,TemperatureF,DewpointF,PressureIn,WindDirection,WindDirectionDegrees,WindSpeedMPH,WindSpeedGustMPH,Humidity,HourlyPrecipIn,Conditions,Clouds,dailyrainin,SoftwareType,DateUTC
2013-01-17 00:03:00,41.0,18.9,30.23,WSW,248,7.3,8.2,41,0.00,,,0.00,WUHU216TE923,2013-01-17 08:03:00,
2013-01-17 00:08:00,41.0,18.9,30.23,WSW,248,7.3,8.2,41,0.00,,,0.00,WUHU216TE923,2013-01-17 08:08:00,
2013-01-17 00:13:00,40.8,18.7,30.23,South,180,7.3,12.3,41,0.00,,,0.00,WUHU216TE923,2013-01-17 08:13:00,
2013-01-17 00:18:00,40.8,18.7,30.23,South,180,7.3,12.3,41,0.00,,,0.00,WUHU216TE923,2013-01-17 08:18:00,
2013-01-17 00:23:00,40.6,18.5,30.23,WSW,248,7.4,9.3,41,0.00,,,0.00,WUHU216TE923,2013-01-17 08:23:00,
2013-01-17 00:28:00,40.6,18.5,30.23,WSW,248,7.4,9.3,41,0.00,,,0.00,WUHU216TE923,2013-01-17 08:28:00,
2013-01-17 00:33:00,40.5,19.0,30.23,SW,225,7.9,11.9,42,0.00,,,0.00,WUHU216TE923,2013-01-17 08:33:00,
2013-01-17 00:38:00,40.5,19.0,30.23,SW,225,7.9,11.9,42,0.00,,,0.00,WUHU216TE923,2013-01-17 08:38:00,
2013-01-17 00:43:00,40.1,18.7,30.21,SSW,203,8.1,10.4,42,0.00,,,0.00,WUHU216TE923,2013-01-17 08:43:00,
2013-01-17 00:48:00,40.1,18.7,30.21,SSW,203,8.1,10.4,42,0.00,,,0.00,WUHU216TE923,2013-01-17 08:48:00,
2013-01-17 00:53:00,40.1,18.7,30.21,South,180,8.5,11.8,42,0.00,,,0.00,WUHU216TE923,2013-01-17 08:53:00,
2013-01-17 00:58:00,40.1,18.7,30.21,South,180,8.5,11.8,42,0.00,,,0.00,WUHU216TE923,2013-01-17 08:58:00,
2013-01-17 01:03:00,39.7,18.3,30.22,SW,225,8.7,9.5,42,0.00,,,0.00,WUHU216TE923,2013-01-17 09:03:00,
2013-01-17 01:08:00,39.7,18.3,30.22,SW,225,8.7,9.5,42,0.00,,,0.00,WUHU216TE923,2013-01-17 09:08:00,
2013-01-17 01:13:00,39.4,18.0,30.22,WSW,248,9.1,9.1,42,0.00,,,0.00,WUHU216TE923,2013-01-17 09:13:00,
2013-01-17 01:18:00,39.4,18.0,30.22,WSW,248,9.1,9.1,42,0.00,,,0.00,WUHU216TE923,2013-01-17 09:18:00,
2013-01-17 01:23:00,39.2,17.8,30.21,NW,315,8.5,9.2,42,0.00,,,0.00,WUHU216TE923,2013-01-17 09:23:00,
2013-01-17 01:28:00,39.2,17.8,30.21,NW,315,8.5,9.2,42,0.00,,,0.00,WUHU216TE923,2013-01-17 09:28:00,
2013-01-17 01:33:00,39.0,17.7,30.21,WNW,293,8.2,10.9,42,0.00,,,0.00,WUHU216TE923,2013-01-17 09:33:00,
2013-01-17 01:38:00,39.0,17.7,30.21,South,180,8.1,10.8,42,0.00,,,0.00,WUHU216TE923,2013-01-17 09:38:00,
2013-01-17 01:43:00,38.7,17.4,30.22,WSW,248,8.2,10.8,42,0.00,,,0.00,WUHU216TE923,2013-01-17 09:43:00,
2013-01-17 01:48:00,38.7,17.4,30.22,WSW,248,7.9,8.6,42,0.00,,,0.00,WUHU216TE923,2013-01-17 09:48:00,
2013-01-17 01:53:00,38.5,17.2,30.22,SW,225,6.5,8.6,42,0.00,,,0.00,WUHU216TE923,2013-01-17 09:53:00,
2013-01-17 01:58:00,38.3,17.0,30.22,SW,225,4.8,8.2,42,0.00,,,0.00,WUHU216TE923,2013-01-17 09:58:00,
2013-01-17 02:03:00,37.9,17.2,30.23,West,270,3.6,4.8,43,0.00,,,0.00,WUHU216TE923,2013-01-17 10:03:00,
2013-01-17 02:08:00,37.6,17.0,30.23,SSW,203,3.1,4.2,43,0.00,,,0.00,WUHU216TE923,2013-01-17 10:08:00,
2013-01-17 02:13:00,37.2,17.1,30.23,WSW,248,2.6,4.2,44,0.00,,,0.00,WUHU216TE923,2013-01-17 10:13:00,
2013-01-17 02:18:00,36.9,17.4,30.23,SSW,203,2.8,5.3,45,0.00,,,0.00,WUHU216TE923,2013-01-17 10:18:00,
2013-01-17 02:23:00,36.5,17.0,30.23,West,270,2.9,5.3,45,0.00,,,0.00,WUHU216TE923,2013-01-17 10:23:00,
2013-01-17 02:28:00,36.3,17.4,30.23,SW,225,2.8,6.1,46,0.00,,,0.00,WUHU216TE923,2013-01-17 10:28:00,
2013-01-17 02:33:00,36.0,17.1,30.23,West,270,2.5,6.1,46,0.00,,,0.00,WUHU216TE923,2013-01-17 10:33:00,
2013-01-17 02:38:00,35.8,17.4,30.23,WSW,248,2.4,2.5,47,0.00,,,0.00,WUHU216TE923,2013-01-17 10:38:00,
2013-01-17 02:43:00,35.8,17.4,30.23,SW,225,2.1,2.4,47,0.00,,,0.00,WUHU216TE923,2013-01-17 10:43:00,
2013-01-17 02:48:00,35.8,17.4,30.23,SSW,203,1.8,3.3,47,0.00,,,0.00,WUHU216TE923,2013-01-17 10:48:00,
2013-01-17 02:53:00,35.8,17.4,30.23,SW,225,2.5,3.7,47,0.00,,,0.00,WUHU216TE923,2013-01-17 10:53:00,
2013-01-17 02:58:00,35.8,17.4,30.23,WSW,248,3.0,3.7,47,0.00,,,0.00,WUHU216TE923,2013-01-17 10:58:00,
2013-01-17 03:03:00,35.6,17.2,30.22,SE,135,2.3,3.3,47,0.00,,,0.00,WUHU216TE923,2013-01-17 11:03:00,
2013-01-17 03:08:00,35.6,17.2,30.22,SE,135,2.1,2.6,47,0.00,,,0.00,WUHU216TE923,2013-01-17 11:08:00,
2013-01-17 03:13:00,35.6,17.2,30.22,SE,135,2.1,2.1,47,0.00,,,0.00,WUHU216TE923,2013-01-17 11:13:00,
2013-01-17 03:18:00,35.6,17.2,30.22,SW,225,4.3,7.7,47,0.00,,,0.00,WUHU216TE923,2013-01-17 11:18:00,
2013-01-17 03:23:00,36.0,17.6,30.22,SW,225,5.1,7.7,47,0.00,,,0.00,WUHU216TE923,2013-01-17 11:23:00,
2013-01-17 03:28:00,36.0,17.6,30.22,WSW,248,5.2,6.7,47,0.00,,,0.00,WUHU216TE923,2013-01-17 11:28:00,
2013-01-17 03:33:00,36.0,17.6,30.22,SSW,203,5.5,7.2,47,0.00,,,0.00,WUHU216TE923,2013-01-17 11:33:00,
2013-01-17 03:38:00,36.1,17.7,30.22,SSW,203,6.2,7.5,47,0.00,,,0.00,WUHU216TE923,2013-01-17 11:38:00,
2013-01-17 03:43:00,36.0,17.6,30.21,SW,225,7.0,10.7,47,0.00,,,0.00,WUHU216TE923,2013-01-17 11:43:00,
2013-01-17 03:48:00,36.1,17.7,30.21,West,270,7.1,10.7,47,0.00,,,0.00,WUHU216TE923,2013-01-17 11:48:00,
2013-01-17 03:53:00,36.5,18.1,30.21,SW,225,7.4,10.3,47,0.00,,,0.00,WUHU216TE923,2013-01-17 11:53:00,
2013-01-17 03:58:00,36.7,17.7,30.21,South,180,7.3,9.3,46,0.00,,,0.00,WUHU216TE923,2013-01-17 11:58:00,
2013-01-17 04:03:00,37.0,18.0,30.21,WSW,248,7.7,12.5,46,0.00,,,0.00,WUHU216TE923,2013-01-17 12:03:00,
2013-01-17 04:08:00,37.2,18.2,30.21,SSW,203,8.1,12.7,46,0.00,,,0.00,WUHU216TE923,2013-01-17 12:08:00,
2013-01-17 04:13:00,37.6,17.5,30.21,WSW,248,8.1,12.7,44,0.00,,,0.00,WUHU216TE923,2013-01-17 12:13:00,
2013-01-17 04:18:00,37.4,17.3,30.21,SW,225,7.8,8.7,44,0.00,,,0.00,WUHU216TE923,2013-01-17 12:18:00,
2013-01-17 04:23:00,37.6,17.5,30.21,WSW,248,8.0,12.1,44,0.00,,,0.00,WUHU216TE923,2013-01-17 12:23:00,
2013-01-17 04:28:00,37.6,17.5,30.21,SW,225,8.3,12.1,44,0.00,,,0.00,WUHU216TE923,2013-01-17 12:28:00,
2013-01-17 04:33:00,37.6,17.5,30.21,SW,225,8.5,10.1,44,0.00,,,0.00,WUHU216TE923,2013-01-17 12:33:00,
2013-01-17 04:38:00,37.6,17.0,30.21,SW,225,9.0,12.1,43,0.00,,,0.00,WUHU216TE923,2013-01-17 12:38:00,
2013-01-17 04:43:00,37.6,17.0,30.20,SW,225,9.1,12.1,43,0.00,,,0.00,WUHU216TE923,2013-01-17 12:43:00,
2013-01-17 04:48:00,37.4,16.8,30.20,SSW,203,9.0,9.9,43,0.00,,,0.00,WUHU216TE923,2013-01-17 12:48:00,
2013-01-17 04:53:00,37.4,16.8,30.20,SW,225,8.5,9.0,43,0.00,,,0.00,WUHU216TE923,2013-01-17 12:53:00,
2013-01-17 04:58:00,37.4,16.8,30.20,WSW,248,8.4,9.8,43,0.00,,,0.00,WUHU216TE923,2013-01-17 12:58:00,
2013-01-17 05:03:00,37.4,16.8,30.20,SSW,203,8.8,9.8,43,0.00,,,0.00,WUHU216TE923,2013-01-17 13:03:00,
2013-01-17 05:08:00,37.4,16.8,30.20,SW,225,8.7,10.8,43,0.00,,,0.00,WUHU216TE923,2013-01-17 13:08:00,
2013-01-17 05:13:00,37.2,17.7,30.20,SW,225,8.9,10.8,45,0.00,,,0.00,WUHU216TE923,2013-01-17 13:13:00,
2013-01-17 05:18:00,37.2,17.7,30.20,SW,225,9.4,10.3,45,0.00,,,0.00,WUHU216TE923,2013-01-17 13:18:00,
2013-01-17 05:23:00,37.4,16.8,30.19,South,180,9.5,10.3,43,0.00,,,0.00,WUHU216TE923,2013-01-17 13:23:00,
2013-01-17 05:28:00,37.2,17.7,30.19,WSW,248,9.3,9.7,45,0.00,,,0.00,WUHU216TE923,2013-01-17 13:28:00,
2013-01-17 05:33:00,36.9,17.4,30.19,SW,225,9.7,11.5,45,0.00,,,0.00,WUHU216TE923,2013-01-17 13:33:00,
2013-01-17 05:38:00,36.7,17.2,30.19,South,180,10.1,12.1,45,0.00,,,0.00,WUHU216TE923,2013-01-17 13:38:00,
2013-01-17 05:43:00,36.3,16.8,30.18,West,270,9.8,14.6,45,0.00,,,0.00,WUHU216TE923,2013-01-17 13:43:00,
2013-01-17 05:48:00,36.1,16.7,30.18,SW,225,10.0,14.6,45,0.00,,,0.00,WUHU216TE923,2013-01-17 13:48:00,
2013-01-17 05:53:00,36.1,16.7,30.18,SW,225,9.5,14.2,45,0.00,,,0.00,WUHU216TE923,2013-01-17 13:53:00,
2013-01-17 05:58:00,36.3,16.8,30.18,SW,225,9.5,12.2,45,0.00,,,0.00,WUHU216TE923,2013-01-17 13:58:00,
2013-01-17 06:03:00,36.3,16.8,30.18,WSW,248,9.7,15.0,45,0.00,,,0.00,WUHU216TE923,2013-01-17 14:03:00,
2013-01-17 06:08:00,36.3,16.8,30.18,West,270,9.8,15.0,45,0.00,,,0.00,WUHU216TE923,2013-01-17 14:08:00,
2013-01-17 06:13:00,36.5,17.0,30.18,West,270,9.8,10.6,45,0.00,,,0.00,WUHU216TE923,2013-01-17 14:13:00,
2013-01-17 06:18:00,36.3,16.8,30.18,SSW,203,9.2,10.6,45,0.00,,,0.00,WUHU216TE923,2013-01-17 14:18:00,
2013-01-17 06:23:00,36.5,17.0,30.18,West,270,9.4,13.4,45,0.00,,,0.00,WUHU216TE923,2013-01-17 14:23:00,
2013-01-17 06:28:00,36.3,16.8,30.18,WSW,248,9.2,13.4,45,0.00,,,0.00,WUHU216TE923,2013-01-17 14:28:00,
2013-01-17 06:33:00,36.5,17.0,30.18,SSW,203,9.4,12.4,45,0.00,,,0.00,WUHU216TE923,2013-01-17 14:33:00,
2013-01-17 06:38:00,36.5,17.0,30.18,SSW,203,9.4,11.7,45,0.00,,,0.00,WUHU216TE923,2013-01-17 14:38:00,
2013-01-17 06:43:00,36.5,17.0,30.18,SW,225,9.0,12.4,45,0.00,,,0.00,WUHU216TE923,2013-01-17 14:43:00,
2013-01-17 06:48:00,36.7,17.2,30.18,WNW,293,8.8,12.4,45,0.00,,,0.00,WUHU216TE923,2013-01-17 14:48:00,
2013-01-17 06:53:00,36.5,16.5,30.18,SW,225,7.0,11.5,44,0.00,,,0.00,WUHU216TE923,2013-01-17 14:53:00,
2013-01-17 06:58:00,36.3,16.8,30.18,WNW,293,5.7,8.6,45,0.00,,,0.00,WUHU216TE923,2013-01-17 14:58:00,
2013-01-17 07:03:00,36.1,16.1,30.20,ESE,113,3.9,8.6,44,0.00,,,0.00,WUHU216TE923,2013-01-17 15:03:00,
2013-01-17 07:08:00,35.8,16.4,30.20,SW,225,2.8,3.9,45,0.00,,,0.00,WUHU216TE923,2013-01-17 15:08:00,
2013-01-17 07:13:00,34.9,15.6,30.20,NNE,23,1.9,2.8,45,0.00,,,0.00,WUHU216TE923,2013-01-17 15:13:00,
2013-01-17 07:18:00,34.7,15.4,30.20,NNE,23,1.3,2.6,45,0.00,,,0.00,WUHU216TE923,2013-01-17 15:18:00,
2013-01-17 07:23:00,34.0,15.3,30.21,NNW,338,0.4,1.3,46,0.00,,,0.00,WUHU216TE923,2013-01-17 15:23:00,
2013-01-17 07:28:00,33.8,15.1,30.21,SSE,158,0.3,1.5,46,0.00,,,0.00,WUHU216TE923,2013-01-17 15:28:00,
2013-01-17 07:33:00,33.6,15.4,30.21,ESE,113,0.2,1.5,47,0.00,,,0.00,WUHU216TE923,2013-01-17 15:33:00,
2013-01-17 07:38:00,33.1,14.9,30.21,WSW,248,0.1,0.2,47,0.00,,,0.00,WUHU216TE923,2013-01-17 15:38:00,
2013-01-17 07:43:00,32.4,14.8,30.22,WSW,248,0.0,0.1,48,0.00,,,0.00,WUHU216TE923,2013-01-17 15:43:00,
2013-01-17 07:48:00,32.2,15.1,30.22,SW,225,0.0,0.0,49,0.00,,,0.00,WUHU216TE923,2013-01-17 15:48:00,
2013-01-17 07:53:00,32.2,15.1,30.22,SW,225,0.4,1.9,49,0.00,,,0.00,WUHU216TE923,2013-01-17 15:53:00,
2013-01-17 07:58:00,32.5,15.9,30.22,SW,225,1.3,3.2,50,0.00,,,0.00,WUHU216TE923,2013-01-17 15:58:00,
2013-01-17 08:03:00,32.5,16.3,30.22,SW,225,2.7,3.2,51,0.00,,,0.00,WUHU216TE923,2013-01-17 16:03:00,
2013-01-17 08:08:00,32.5,16.3,30.22,SW,225,2.7,3.2,51,0.00,,,0.00,WUHU216TE923,2013-01-17 16:08:00,
2013-01-17 08:13:00,32.5,16.8,30.22,SW,225,2.6,3.5,52,0.00,,,0.00,WUHU216TE923,2013-01-17 16:13:00,
2013-01-17 08:18:00,32.5,16.8,30.22,SSW,203,2.9,3.5,52,0.00,,,0.00,WUHU216TE923,2013-01-17 16:18:00,
2013-01-17 08:23:00,32.9,17.2,30.23,SW,225,3.0,3.4,52,0.00,,,0.00,WUHU216TE923,2013-01-17 16:23:00,
2013-01-17 08:28:00,33.1,16.9,30.23,SW,225,3.2,4.6,51,0.00,,,0.00,WUHU216TE923,2013-01-17 16:28:00,
2013-01-17 08:33:00,32.9,16.7,30.23,West,270,3.8,4.6,51,0.00,,,0.00,WUHU216TE923,2013-01-17 16:33:00,
2013-01-17 08:38:00,32.7,16.5,30.23,WSW,248,4.1,5.3,51,0.00,,,0.00,WUHU216TE923,2013-01-17 16:38:00,
2013-01-17 08:43:00,32.9,16.7,30.23,SW,225,3.7,5.3,51,0.00,,,0.00,WUHU216TE923,2013-01-17 16:43:00,
2013-01-17 08:48:00,33.3,17.1,30.23,SW,225,3.9,5.6,51,0.00,,,0.00,WUHU216TE923,2013-01-17 16:48:00,
2013-01-17 08:53:00,33.3,16.6,30.23,SW,225,3.9,5.6,50,0.00,,,0.00,WUHU216TE923,2013-01-17 16:53:00,
2013-01-17 08:58:00,33.3,16.6,30.23,SW,225,3.8,6.6,50,0.00,,,0.00,WUHU216TE923,2013-01-17 16:58:00,
2013-01-17 09:03:00,32.9,16.7,30.23,West,270,3.4,6.6,51,0.00,,,0.00,WUHU216TE923,2013-01-17 17:03:00,
2013-01-17 09:08:00,32.9,16.7,30.23,NW,315,3.4,5.3,51,0.00,,,0.00,WUHU216TE923,2013-01-17 17:08:00,
2013-01-17 09:13:00,32.5,16.3,30.23,NW,315,3.7,5.1,51,0.00,,,0.00,WUHU216TE923,2013-01-17 17:13:00,
2013-01-17 09:18:00,32.5,16.3,30.23,SSW,203,3.4,4.3,51,0.00,,,0.00,WUHU216TE923,2013-01-17 17:18:00,
2013-01-17 09:23:00,32.7,16.5,30.24,WSW,248,2.7,3.5,51,0.00,,,0.00,WUHU216TE923,2013-01-17 17:23:00,
2013-01-17 09:28:00,32.7,16.5,30.24,SW,225,4.5,9.4,51,0.00,,,0.00,WUHU216TE923,2013-01-17 17:28:00,
2013-01-17 09:33:00,32.7,17.0,30.24,South,180,7.7,10.8,52,0.00,,,0.00,WUHU216TE923,2013-01-17 17:33:00,
2013-01-17 09:38:00,32.9,17.2,30.24,South,180,8.3,11.1,52,0.00,,,0.00,WUHU216TE923,2013-01-17 17:38:00,
2013-01-17 09:43:00,33.1,17.3,30.24,South,180,8.7,11.1,52,0.00,,,0.00,WUHU216TE923,2013-01-17 17:43:00,
2013-01-17 09:48:00,33.3,17.5,30.24,SW,225,8.8,9.9,52,0.00,,,0.00,WUHU216TE923,2013-01-17 17:48:00,
2013-01-17 09:53:00,33.4,17.6,30.24,SSW,203,9.7,10.8,52,0.00,,,0.00,WUHU216TE923,2013-01-17 17:53:00,
2013-01-17 09:59:00,33.8,18.0,30.24,SW,225,10.5,16.9,52,0.00,,,0.00,WUHU216TE923,2013-01-17 17:59:00,
2013-01-17 10:04:00,34.2,17.9,30.23,WSW,248,12.0,16.9,51,0.00,,,0.00,WUHU216TE923,2013-01-17 18:04:00,
2013-01-17 10:09:00,34.5,18.2,30.23,WSW,248,12.2,15.0,51,0.00,,,0.00,WUHU216TE923,2013-01-17 18:09:00,
2013-01-17 10:14:00,35.1,18.7,30.23,SSW,203,11.3,15.0,51,0.00,,,0.00,WUHU216TE923,2013-01-17 18:14:00,
2013-01-17 10:19:00,35.4,18.5,30.23,South,180,11.3,16.3,50,0.00,,,0.00,WUHU216TE923,2013-01-17 18:19:00,
2013-01-17 10:24:00,35.8,18.4,30.23,WSW,248,11.1,16.3,49,0.00,,,0.00,WUHU216TE923,2013-01-17 18:24:00,
2013-01-17 10:29:00,36.0,18.6,30.23,SW,225,10.5,11.6,49,0.00,,,0.00,WUHU216TE923,2013-01-17 18:29:00,
2013-01-17 10:34:00,36.1,18.7,30.23,SW,225,8.1,11.5,49,0.00,,,0.00,WUHU216TE923,2013-01-17 18:34:00,
2013-01-17 10:39:00,36.3,18.9,30.23,SSW,203,6.0,8.1,49,0.00,,,0.00,WUHU216TE923,2013-01-17 18:39:00,
2013-01-17 10:44:00,36.9,19.4,30.23,ESE,113,3.4,6.0,49,0.00,,,0.00,WUHU216TE923,2013-01-17 18:44:00,
2013-01-17 10:49:00,36.9,19.4,30.23,WNW,293,2.5,4.4,49,0.00,,,0.00,WUHU216TE923,2013-01-17 18:49:00,
2013-01-17 10:54:00,37.2,19.2,30.23,South,180,1.9,4.4,48,0.00,,,0.00,WUHU216TE923,2013-01-17 18:54:00,
2013-01-17 10:59:00,37.6,19.1,30.23,SW,225,2.8,4.0,47,0.00,,,0.00,WUHU216TE923,2013-01-17 18:59:00,
2013-01-17 11:04:00,37.9,19.4,30.23,WSW,248,4.0,4.2,47,0.00,,,0.00,WUHU216TE923,2013-01-17 19:04:00,
2013-01-17 11:09:00,37.9,19.4,30.23,WSW,248,3.8,5.0,47,0.00,,,0.00,WUHU216TE923,2013-01-17 19:09:00,
2013-01-17 11:14:00,38.3,19.2,30.23,NNW,338,3.3,5.0,46,0.00,,,0.00,WUHU216TE923,2013-01-17 19:14:00,
2013-01-17 11:19:00,38.5,19.4,30.23,South,180,2.6,3.5,46,0.00,,,0.00,WUHU216TE923,2013-01-17 19:19:00,
2013-01-17 11:24:00,38.8,19.7,30.22,WSW,248,2.3,4.8,46,0.00,,,0.00,WUHU216TE923,2013-01-17 19:24:00,
2013-01-17 11:29:00,39.2,19.5,30.22,SW,225,3.4,8.6,45,0.00,,,0.00,WUHU216TE923,2013-01-17 19:29:00,
2013-01-17 11:34:00,39.7,20.0,30.22,West,270,4.5,8.6,45,0.00,,,0.00,WUHU216TE923,2013-01-17 19:34:00,
2013-01-17 11:39:00,40.1,20.3,30.22,WSW,248,4.8,8.6,45,0.00,,,0.00,WUHU216TE923,2013-01-17 19:39:00,
2013-01-17 11:44:00,40.5,20.1,30.21,SE,135,6.0,10.0,44,0.00,,,0.00,WUHU216TE923,2013-01-17 19:44:00,
2013-01-17 11:49:00,40.8,20.4,30.21,WSW,248,6.6,10.0,44,0.00,,,0.00,WUHU216TE923,2013-01-17 19:49:00,
2013-01-17 11:54:00,41.2,20.2,30.21,South,180,5.3,9.3,43,0.00,,,0.00,WUHU216TE923,2013-01-17 19:54:00,
2013-01-17 11:59:00,41.9,20.9,30.21,WSW,248,4.4,9.8,43,0.00,,,0.00,WUHU216TE923,2013-01-17 19:59:00,
2013-01-17 12:04:00,42.1,21.0,30.20,NE,45,3.2,9.8,43,0.00,,,0.00,WUHU216TE923,2013-01-17 20:04:00,
2013-01-17 12:09:00,42.1,21.0,30.20,NE,45,3.0,3.2,43,0.00,,,0.00,WUHU216TE923,2013-01-17 20:09:00,
2013-01-17 12:14:00,42.1,21.0,30.20,NE,45,3.0,3.0,43,0.00,,,0.00,WUHU216TE923,2013-01-17 20:14:00,
2013-01-17 12:19:00,42.4,21.3,30.20,NNE,23,0.5,3.0,43,0.00,,,0.00,WUHU216TE923,2013-01-17 20:19:00,
2013-01-17 12:24:00,43.2,20.3,30.20,SSE,158,0.7,1.1,40,0.00,,,0.00,WUHU216TE923,2013-01-17 20:24:00,
2013-01-17 12:29:00,43.7,20.7,30.20,SE,135,0.9,2.4,40,0.00,,,0.00,WUHU216TE923,2013-01-17 20:29:00,
2013-01-17 12:34:00,44.2,21.2,30.20,ESE,113,1.4,3.2,40,0.00,,,0.00,WUHU216TE923,2013-01-17 20:34:00,
2013-01-17 12:39:00,44.6,21.6,30.20,ESE,113,1.6,3.2,40,0.00,,,0.00,WUHU216TE923,2013-01-17 20:39:00,
2013-01-17 12:44:00,45.0,21.3,30.19,SE,135,1.6,1.6,39,0.00,,,0.00,WUHU216TE923,2013-01-17 20:44:00,
2013-01-17 12:49:00,45.3,21.6,30.19,NNW,338,1.4,1.6,39,0.00,,,0.00,WUHU216TE923,2013-01-17 20:49:00,
2013-01-17 12:54:00,45.7,21.9,30.19,South,180,1.2,1.4,39,0.00,,,0.00,WUHU216TE923,2013-01-17 20:54:00,
2013-01-17 12:59:00,46.0,21.6,30.19,ESE,113,1.4,1.6,38,0.00,,,0.00,WUHU216TE923,2013-01-17 20:59:00,
2013-01-17 13:04:00,46.0,20.9,30.19,SSW,203,1.4,1.6,37,0.00,,,0.00,WUHU216TE923,2013-01-17 21:04:00,
2013-01-17 13:09:00,46.2,21.1,30.19,SE,135,1.1,1.5,37,0.00,,,0.00,WUHU216TE923,2013-01-17 21:09:00,
2013-01-17 13:14:00,46.8,21.0,30.19,South,180,1.1,1.5,36,0.00,,,0.00,WUHU216TE923,2013-01-17 21:14:00,
2013-01-17 13:19:00,47.1,21.3,30.19,SSW,203,1.2,1.6,36,0.00,,,0.00,WUHU216TE923,2013-01-17 21:19:00,
2013-01-17 13:24:00,46.8,21.0,30.19,South,180,0.8,1.6,36,0.00,,,0.00,WUHU216TE923,2013-01-17 21:24:00,
2013-01-17 13:29:00,46.8,21.0,30.19,SSE,158,0.4,1.0,36,0.00,,,0.00,WUHU216TE923,2013-01-17 21:29:00,
2013-01-17 13:34:00,46.6,21.5,30.19,SE,135,0.0,0.4,37,0.00,,,0.00,WUHU216TE923,2013-01-17 21:34:00,
2013-01-17 13:39:00,46.9,21.8,30.19,SE,135,0.1,0.1,37,0.00,,,0.00,WUHU216TE923,2013-01-17 21:39:00,
2013-01-17 13:44:00,46.8,22.3,30.17,SSE,158,0.4,1.4,38,0.00,,,0.00,WUHU216TE923,2013-01-17 21:44:00,
2013-01-17 13:49:00,46.6,22.1,30.17,South,180,0.7,2.1,38,0.00,,,0.00,WUHU216TE923,2013-01-17 21:49:00,
2013-01-17 13:54:00,46.8,22.3,30.17,SE,135,0.6,2.1,38,0.00,,,0.00,WUHU216TE923,2013-01-17 21:54:00,
2013-01-17 13:59:00,46.8,22.3,30.17,SE,135,0.5,0.6,38,0.00,,,0.00,WUHU216TE923,2013-01-17 21:59:00,
2013-01-17 14:04:00,47.3,22.8,30.17,SW,225,0.3,0.5,38,0.00,,,0.00,WUHU216TE923,2013-01-17 22:04:00,
2013-01-17 14:09:00,47.5,22.9,30.17,SSE,158,0.2,0.3,38,0.00,,,0.00,WUHU216TE923,2013-01-17 22:09:00,
2013-01-17 14:14:00,47.3,22.8,30.17,SE,135,0.3,1.5,38,0.00,,,0.00,WUHU216TE923,2013-01-17 22:14:00,
2013-01-17 14:19:00,47.1,22.6,30.17,ENE,68,0.3,1.5,38,0.00,,,0.00,WUHU216TE923,2013-01-17 22:19:00,
2013-01-17 14:24:00,46.9,22.4,30.16,ESE,113,0.3,1.0,38,0.00,,,0.00,WUHU216TE923,2013-01-17 22:24:00,
2013-01-17 14:29:00,46.6,22.1,30.16,SE,135,0.2,1.0,38,0.00,,,0.00,WUHU216TE923,2013-01-17 22:29:00,
2013-01-17 14:34:00,46.6,22.1,30.16,ESE,113,0.3,0.3,38,0.00,,,0.00,WUHU216TE923,2013-01-17 22:34:00,
2013-01-17 14:39:00,46.6,22.1,30.16,SE,135,0.2,0.3,38,0.00,,,0.00,WUHU216TE923,2013-01-17 22:39:00,
2013-01-17 14:44:00,46.2,22.4,30.16,ESE,113,0.2,2.0,39,0.00,,,0.00,WUHU216TE923,2013-01-17 22:44:00,
2013-01-17 14:49:00,46.0,22.2,30.16,ESE,113,0.3,2.0,39,0.00,,,0.00,WUHU216TE923,2013-01-17 22:49:00,
2013-01-17 14:54:00,46.0,22.2,30.16,SE,135,0.3,1.1,39,0.00,,,0.00,WUHU216TE923,2013-01-17 22:54:00,
2013-01-17 14:59:00,46.0,22.2,30.16,SSE,158,0.2,1.3,39,0.00,,,0.00,WUHU216TE923,2013-01-17 22:59:00,
2013-01-17 15:04:00,46.0,22.8,30.16,SE,135,0.3,1.3,40,0.00,,,0.00,WUHU216TE923,2013-01-17 23:04:00,
2013-01-17 15:09:00,45.9,22.7,30.16,SE,135,0.2,1.3,40,0.00,,,0.00,WUHU216TE923,2013-01-17 23:09:00,
2013-01-17 15:14:00,45.7,22.6,30.16,South,180,0.2,0.2,40,0.00,,,0.00,WUHU216TE923,2013-01-17 23:14:00,
2013-01-17 15:19:00,45.9,22.7,30.16,South,180,0.2,0.2,40,0.00,,,0.00,WUHU216TE923,2013-01-17 23:19:00,
2013-01-17 15:24:00,45.9,22.7,30.16,NW,315,0.2,1.0,40,0.00,,,0.00,WUHU216TE923,2013-01-17 23:24:00,
2013-01-17 15:29:00,45.5,22.4,30.16,SE,135,0.2,1.0,40,0.00,,,0.00,WUHU216TE923,2013-01-17 23:29:00,
2013-01-17 15:34:00,45.0,21.9,30.16,SE,135,0.1,0.2,40,0.00,,,0.00,WUHU216TE923,2013-01-17 23:34:00,
2013-01-17 15:39:00,44.4,22.0,30.16,SSE,158,0.0,0.1,41,0.00,,,0.00,WUHU216TE923,2013-01-17 23:39:00,
2013-01-17 15:44:00,43.9,21.5,30.17,SSE,158,0.0,0.0,41,0.00,,,0.00,WUHU216TE923,2013-01-17 23:44:00,
2013-01-17 15:49:00,43.2,21.5,30.17,South,180,0.0,0.0,42,0.00,,,0.00,WUHU216TE923,2013-01-17 23:49:00,
2013-01-17 15:54:00,42.8,21.7,30.17,NW,315,0.0,0.0,43,0.00,,,0.00,WUHU216TE923,2013-01-17 23:54:00,
2013-01-17 15:59:00,42.1,22.2,30.17,SW,225,0.0,0.0,45,0.00,,,0.00,WUHU216TE923,2013-01-17 23:59:00,
2013-01-17 16:04:00,41.2,22.4,30.17,SW,225,0.0,0.0,47,0.00,,,0.00,WUHU216TE923,2013-01-18 00:04:00,
2013-01-17 16:09:00,40.8,22.5,30.17,SW,225,0.0,1.1,48,0.00,,,0.00,WUHU216TE923,2013-01-18 00:09:00,
2013-01-17 16:14:00,40.5,22.8,30.17,SW,225,0.2,1.1,49,0.00,,,0.00,WUHU216TE923,2013-01-18 00:14:00,
2013-01-17 16:19:00,40.1,22.9,30.17,SSW,203,0.3,0.3,50,0.00,,,0.00,WUHU216TE923,2013-01-18 00:19:00,
2013-01-17 16:24:00,40.3,23.1,30.17,South,180,0.3,0.3,50,0.00,,,0.00,WUHU216TE923,2013-01-18 00:24:00,
2013-01-17 16:29:00,40.1,23.4,30.17,SW,225,0.2,0.3,51,0.00,,,0.00,WUHU216TE923,2013-01-18 00:29:00,
2013-01-17 16:34:00,39.9,23.2,30.17,SW,225,0.0,0.2,51,0.00,,,0.00,WUHU216TE923,2013-01-18 00:34:00,
2013-01-17 16:39:00,39.7,23.0,30.17,South,180,0.1,1.0,51,0.00,,,0.00,WUHU216TE923,2013-01-18 00:39:00,
2013-01-17 16:44:00,39.7,23.0,30.18,SSW,203,0.4,1.1,51,0.00,,,0.00,WUHU216TE923,2013-01-18 00:44:00,
2013-01-17 16:49:00,39.6,22.9,30.18,SW,225,0.5,1.1,51,0.00,,,0.00,WUHU216TE923,2013-01-18 00:49:00,
2013-01-17 16:54:00,39.6,23.4,30.18,WSW,248,0.4,1.5,52,0.00,,,0.00,WUHU216TE923,2013-01-18 00:54:00,
2013-01-17 16:59:00,39.6,23.4,30.18,SW,225,0.7,1.5,52,0.00,,,0.00,WUHU216TE923,2013-01-18 00:59:00,
2013-01-17 17:04:00,39.7,23.0,30.18,South,180,1.1,2.4,51,0.00,,,0.00,WUHU216TE923,2013-01-18 01:04:00,
2013-01-17 17:09:00,39.7,23.0,30.18,South,180,1.3,2.4,51,0.00,,,0.00,WUHU216TE923,2013-01-18 01:09:00,
2013-01-17 17:14:00,39.9,22.7,30.18,SSW,203,1.7,3.3,50,0.00,,,0.00,WUHU216TE923,2013-01-18 01:14:00,
2013-01-17 17:19:00,40.1,22.9,30.18,WSW,248,1.8,3.3,50,0.00,,,0.00,WUHU216TE923,2013-01-18 01:19:00,
2013-01-17 17:24:00,40.1,22.4,30.17,South,180,1.9,2.2,49,0.00,,,0.00,WUHU216TE923,2013-01-18 01:24:00,
2013-01-17 17:29:00,40.1,22.4,30.17,NNE,23,2.0,2.5,49,0.00,,,0.00,WUHU216TE923,2013-01-18 01:29:00,
2013-01-17 17:34:00,40.1,21.9,30.17,South,180,2.1,4.6,48,0.00,,,0.00,WUHU216TE923,2013-01-18 01:34:00,
2013-01-17 17:39:00,40.1,21.9,30.17,SW,225,2.1,4.6,48,0.00,,,0.00,WUHU216TE923,2013-01-18 01:39:00,
2013-01-17 17:44:00,39.7,21.5,30.17,South,180,2.0,2.6,48,0.00,,,0.00,WUHU216TE923,2013-01-18 01:44:00,
2013-01-17 17:49:00,39.6,21.4,30.17,SW,225,1.9,2.3,48,0.00,,,0.00,WUHU216TE923,2013-01-18 01:49:00,
2013-01-17 17:54:00,38.7,21.1,30.17,NNW,338,1.2,2.3,49,0.00,,,0.00,WUHU216TE923,2013-01-18 01:54:00,
2013-01-17 17:59:00,37.6,20.6,30.17,SW,225,0.6,1.2,50,0.00,,,0.00,WUHU216TE923,2013-01-18 01:59:00,
2013-01-17 18:04:00,36.9,21.3,30.16,WSW,248,0.1,1.0,53,0.00,,,0.00,WUHU216TE923,2013-01-18 02:04:00,
2013-01-17 18:09:00,36.5,21.4,30.16,SW,225,0.2,1.1,54,0.00,,,0.00,WUHU216TE923,2013-01-18 02:09:00,
2013-01-17 18:14:00,36.3,21.7,30.16,SW,225,1.0,1.6,55,0.00,,,0.00,WUHU216TE923,2013-01-18 02:14:00,
2013-01-17 18:19:00,36.1,21.5,30.16,WSW,248,1.3,1.6,55,0.00,,,0.00,WUHU216TE923,2013-01-18 02:19:00,
2013-01-17 18:24:00,36.0,21.8,30.16,SW,225,0.7,1.3,56,0.00,,,0.00,WUHU216TE923,2013-01-18 02:24:00,
2013-01-17 18:29:00,35.8,21.6,30.16,WSW,248,0.2,0.7,56,0.00,,,0.00,WUHU216TE923,2013-01-18 02:29:00,
2013-01-17 18:34:00,35.6,21.9,30.16,WSW,248,0.0,1.1,57,0.00,,,0.00,WUHU216TE923,2013-01-18 02:34:00,
2013-01-17 18:39:00,35.4,21.7,30.16,WSW,248,0.1,1.1,57,0.00,,,0.00,WUHU216TE923,2013-01-18 02:39:00,
2013-01-17 18:44:00,35.2,21.5,30.16,WSW,248,0.5,1.4,57,0.00,,,0.00,WUHU216TE923,2013-01-18 02:44:00,
2013-01-17 18:49:00,35.1,21.8,30.16,WSW,248,0.8,1.4,58,0.00,,,0.00,WUHU216TE923,2013-01-18 02:49:00,
2013-01-17 18:54:00,35.1,21.8,30.16,WSW,248,0.7,1.1,58,0.00,,,0.00,WUHU216TE923,2013-01-18 02:54:00,
2013-01-17 18:59:00,34.9,21.6,30.16,SW,225,0.4,0.7,58,0.00,,,0.00,WUHU216TE923,2013-01-18 02:59:00,
2013-01-17 19:04:00,35.2,21.5,30.17,ESE,113,0.4,1.0,57,0.00,,,0.00,WUHU216TE923,2013-01-18 03:04:00,
2013-01-17 19:09:00,36.1,22.4,30.17,SSE,158,0.5,1.0,57,0.00,,,0.00,WUHU216TE923,2013-01-18 03:09:00,
2013-01-17 19:14:00,36.9,22.7,30.17,WNW,293,0.9,1.9,56,0.00,,,0.00,WUHU216TE923,2013-01-18 03:14:00,
2013-01-17 19:19:00,37.2,22.1,30.17,West,270,1.4,2.2,54,0.00,,,0.00,WUHU216TE923,2013-01-18 03:19:00,
2013-01-17 19:24:00,37.4,21.8,30.17,West,270,1.3,2.2,53,0.00,,,0.00,WUHU216TE923,2013-01-18 03:24:00,
2013-01-17 19:29:00,37.4,21.3,30.17,West,270,1.1,1.7,52,0.00,,,0.00,WUHU216TE923,2013-01-18 03:29:00,
2013-01-17 19:34:00,37.6,21.1,30.17,WSW,248,2.1,3.6,51,0.00,,,0.00,WUHU216TE923,2013-01-18 03:34:00,
2013-01-17 19:39:00,37.6,20.6,30.17,SW,225,3.1,6.4,50,0.00,,,0.00,WUHU216TE923,2013-01-18 03:39:00,
2013-01-17 19:44:00,37.9,19.9,30.17,SW,225,3.2,6.4,48,0.00,,,0.00,WUHU216TE923,2013-01-18 03:44:00,
2013-01-17 19:49:00,38.1,20.0,30.17,SW,225,2.6,5.6,48,0.00,,,0.00,WUHU216TE923,2013-01-18 03:49:00,
2013-01-17 19:54:00,38.1,19.5,30.17,South,180,3.6,7.6,47,0.00,,,0.00,WUHU216TE923,2013-01-18 03:54:00,
2013-01-17 19:59:00,38.1,19.0,30.17,SW,225,5.1,7.6,46,0.00,,,0.00,WUHU216TE923,2013-01-18 03:59:00,
2013-01-17 20:04:00,38.1,19.0,30.16,WNW,293,6.7,7.2,46,0.00,,,0.00,WUHU216TE923,2013-01-18 04:04:00,
2013-01-17 20:09:00,38.1,18.5,30.16,SE,135,6.4,7.1,45,0.00,,,0.00,WUHU216TE923,2013-01-18 04:09:00,
2013-01-17 20:14:00,38.1,18.0,30.16,WSW,248,6.0,12.2,44,0.00,,,0.00,WUHU216TE923,2013-01-18 04:14:00,
2013-01-17 20:19:00,38.1,18.5,30.16,SW,225,6.6,12.2,45,0.00,,,0.00,WUHU216TE923,2013-01-18 04:19:00,
2013-01-17 20:24:00,38.1,18.0,30.16,West,270,6.3,11.3,44,0.00,,,0.00,WUHU216TE923,2013-01-18 04:24:00,
2013-01-17 20:29:00,37.9,17.8,30.16,NW,315,4.6,7.2,44,0.00,,,0.00,WUHU216TE923,2013-01-18 04:29:00,
2013-01-17 20:34:00,37.4,17.3,30.16,NNE,23,2.4,4.6,44,0.00,,,0.00,WUHU216TE923,2013-01-18 04:34:00,
2013-01-17 20:39:00,37.2,17.7,30.16,South,180,2.2,6.4,45,0.00,,,0.00,WUHU216TE923,2013-01-18 04:39:00,
2013-01-17 20:44:00,37.0,18.0,30.18,SSW,203,3.4,6.4,46,0.00,,,0.00,WUHU216TE923,2013-01-18 04:44:00,
2013-01-17 20:49:00,36.9,17.9,30.18,SW,225,4.1,6.2,46,0.00,,,0.00,WUHU216TE923,2013-01-18 04:49:00,
2013-01-17 20:54:00,36.5,17.6,30.18,WSW,248,3.3,4.1,46,0.00,,,0.00,WUHU216TE923,2013-01-18 04:54:00,
2013-01-17 20:59:00,36.5,17.6,30.18,WSW,248,2.7,3.3,46,0.00,,,0.00,WUHU216TE923,2013-01-18 04:59:00,
2013-01-17 21:04:00,36.3,17.9,30.18,WSW,248,2.6,3.2,47,0.00,,,0.00,WUHU216TE923,2013-01-18 05:04:00,
2013-01-17 21:09:00,36.1,17.7,30.18,East,90,2.4,3.2,47,0.00,,,0.00,WUHU216TE923,2013-01-18 05:09:00,
2013-01-17 21:14:00,36.0,18.1,30.18,WSW,248,1.8,2.6,48,0.00,,,0.00,WUHU216TE923,2013-01-18 05:14:00,
2013-01-17 21:19:00,35.8,17.9,30.18,SSE,158,1.4,1.8,48,0.00,,,0.00,WUHU216TE923,2013-01-18 05:19:00,
2013-01-17 21:24:00,35.6,17.7,30.18,South,180,0.6,1.4,48,0.00,,,0.00,WUHU216TE923,2013-01-18 05:24:00,
2013-01-17 21:29:00,34.9,17.6,30.18,SE,135,0.1,0.6,49,0.00,,,0.00,WUHU216TE923,2013-01-18 05:29:00,
2013-01-17 21:34:00,34.3,17.5,30.18,SW,225,0.4,3.4,50,0.00,,,0.00,WUHU216TE923,2013-01-18 05:34:00,
2013-01-17 21:39:00,34.7,17.9,30.18,South,180,1.3,3.4,50,0.00,,,0.00,WUHU216TE923,2013-01-18 05:39:00,
2013-01-17 21:44:00,34.9,18.5,30.17,WSW,248,2.3,2.3,51,0.00,,,0.00,WUHU216TE923,2013-01-18 05:44:00,
2013-01-17 21:49:00,34.9,18.5,30.17,SSW,203,2.0,2.3,51,0.00,,,0.00,WUHU216TE923,2013-01-18 05:49:00,
2013-01-17 21:54:00,34.9,18.5,30.17,SSW,203,2.0,2.9,51,0.00,,,0.00,WUHU216TE923,2013-01-18 05:54:00,
2013-01-17 21:59:00,34.9,18.5,30.17,SW,225,2.2,2.9,51,0.00,,,0.00,WUHU216TE923,2013-01-18 05:59:00,
2013-01-17 22:04:00,34.9,18.5,30.16,West,270,2.4,3.6,51,0.00,,,0.00,WUHU216TE923,2013-01-18 06:04:00,
2013-01-17 22:09:00,34.9,18.5,30.16,SSW,203,2.7,5.1,51,0.00,,,0.00,WUHU216TE923,2013-01-18 06:09:00,
2013-01-17 22:14:00,34.9,18.1,30.16,NE,45,3.3,5.1,50,0.00,,,0.00,WUHU216TE923,2013-01-18 06:14:00,
2013-01-17 22:19:00,34.9,17.6,30.16,SW,225,3.9,6.6,49,0.00,,,0.00,WUHU216TE923,2013-01-18 06:19:00,
2013-01-17 22:24:00,34.9,17.6,30.15,South,180,4.2,6.6,49,0.00,,,0.00,WUHU216TE923,2013-01-18 06:24:00,
2013-01-17 22:29:00,34.9,17.6,30.15,WSW,248,4.1,5.2,49,0.00,,,0.00,WUHU216TE923,2013-01-18 06:29:00,
2013-01-17 22:34:00,34.9,17.6,30.15,WSW,248,4.1,5.2,49,0.00,,,0.00,WUHU216TE923,2013-01-18 06:34:00,
2013-01-17 22:39:00,34.9,17.6,30.15,SW,225,4.1,4.3,49,0.00,,,0.00,WUHU216TE923,2013-01-18 06:39:00,
2013-01-17 22:44:00,34.7,17.4,30.14,WSW,248,4.1,5.0,49,0.00,,,0.00,WUHU216TE923,2013-01-18 06:44:00,
2013-01-17 22:49:00,34.7,17.4,30.14,SW,225,4.4,8.6,49,0.00,,,0.00,WUHU216TE923,2013-01-18 06:49:00,
2013-01-17 22:54:00,34.3,17.0,30.14,South,180,4.8,8.6,49,0.00,,,0.00,WUHU216TE923,2013-01-18 06:54:00,
2013-01-17 22:59:00,34.3,17.0,30.14,SW,225,5.2,9.1,49,0.00,,,0.00,WUHU216TE923,2013-01-18 06:59:00,
2013-01-17 23:04:00,34.2,16.9,30.13,South,180,6.1,10.2,49,0.00,,,0.00,WUHU216TE923,2013-01-18 07:04:00,
2013-01-17 23:10:00,34.0,16.8,30.13,SSW,203,7.4,10.2,49,0.00,,,0.00,WUHU216TE923,2013-01-18 07:10:00,
2013-01-17 23:15:00,34.0,16.8,30.13,SW,225,9.2,10.2,49,0.00,,,0.00,WUHU216TE923,2013-01-18 07:15:00,
2013-01-17 23:20:00,34.0,16.8,30.13,SW,225,9.4,18.2,49,0.00,,,0.00,WUHU216TE923,2013-01-18 07:20:00,
2013-01-17 23:25:00,34.0,16.8,30.13,SW,225,9.8,18.2,49,0.00,,,0.00,WUHU216TE923,2013-01-18 07:25:00,
2013-01-17 23:30:00,33.8,16.6,30.13,SW,225,9.9,13.3,49,0.00,,,0.00,WUHU216TE923,2013-01-18 07:30:00,
2013-01-17 23:35:00,33.8,17.1,30.13,WSW,248,9.4,10.7,50,0.00,,,0.00,WUHU216TE923,2013-01-18 07:35:00,
2013-01-17 23:40:00,33.8,17.1,30.13,NW,315,9.8,11.3,50,0.00,,,0.00,WUHU216TE923,2013-01-18 07:40:00,
2013-01-17 23:45:00,33.8,16.6,30.13,South,180,10.6,12.8,49,0.00,,,0.00,WUHU216TE923,2013-01-18 07:45:00,
2013-01-17 23:50:00,33.8,16.6,30.13,SSW,203,10.1,15.3,49,0.00,,,0.00,WUHU216TE923,2013-01-18 07:50:00,
2013-01-17 23:55:00,34.0,16.8,30.13,West,270,8.9,15.3,49,0.00,,,0.00,WUHU216TE923,2013-01-18 07:55:00,